Location: Olomouc
(49.5830°N, 17.2500°E)
Time: 02:42:01
(UTC+01:00)

ISS - Pass Details

Date: 08 October 2020
Orbit: 417 x 420 km, 51.6° (Epoch: 25 October)

Event Time Altitude Azimuth Distance (km) Brightness Sun altitude
Rises 18:46:50 0° 285° (WNW) 2,368 1.8 -6.1°
Reaches altitude 10° 18:49:21 10° 266° (W) 1,501 0.9 -6.5°
Maximum altitude 18:51:46 19° 220° (SW) 1,085 -1.1 -6.9°
Drops below altitude 10° 18:54:11 10° 174° (S) 1,495 -1.0 -7.3°
Sets 18:56:41 0° 155° (SSE) 2,355 -0.2 -7.7°
